Погода в Байгуле

Россия / Забайкальский край     52°14′52″N   116°44′44″E
В апреле 2022 года жителям России запретили посещать сайт meteo.paraplan.net по решению Генеральной прокуратуры. Аудитория сайта уменьшилась в 10 раз. Владельцы сайта не видят смысла в поддержке погодного сервера в таких условиях. Сайт будет закрыт в октябре.
темп.,
°C
ветер,
м/с
пор.,
м/с
влажн.,
%
обл.,
%
осадки,
мм/ч
давл.,
гПа
погр.,
м
30 сентября, пт
пт3000:00+2вюв117551 0.0 101310
03:00+1всв1177100 0.0 101410
06:000всв2278100 0.0 101412
09:00+2св2367100 0.0 1014155
12:00+6в2247100 0.0 1013525
15:00+9в2138100 0.0 1011811
18:00+8вюв224541 0.0 101223
21:00+4вюв2251100 0.0 101411
1 октября, сб
сб100:00+3вюв2256100 0.0 101513
03:00+1юв2259100 0.0 101611
06:00+1вюв236198 0.0 101462
09:00+3юв3660100 0.0 1014190
12:00+5ю51074100 2.2 1013780
15:00+9юз61070100 2.3 10111146
18:00+7з61067100 0.1 1013659
21:00+3зюз6127389 0.1 1015364
2 октября, вс
вс200:00+1з7126482 0.0 1017544
03:00−1зюз7126572 0.0 1018582
06:00−2з71366100 0.0 1019539
09:000з7125696 0.0 1020823
12:00+3зсз7936100 0.0 10201406
15:00+5зсз893077 0.0 10202182
18:00+4сз693664 0.0 1021788
21:00−1зсз47545 0.0 1024116
3 октября, пн
пн300:00−3сз47705 0.0 1026127
03:00−4зсз496863 0.0 1028257
06:00−4сз49695 0.0 1028247
09:00−1ссз5104318 0.0 1029891
12:00+2ссз673031 0.0 10281871
15:00+3ссз7827100 0.0 10272514
18:00+2ссз5833100 0.0 1027621
21:00−3сз33505 0.0 103026
4 октября, вт
вт400:00−4зсз33531 0.0 103032
03:00−4зсз36554 0.0 1030102
06:00−5зсз35580 0.0 103081
09:00−2сз35460 0.0 1030230
12:00+3сз46293 0.0 10281805
15:00+4сз5626100 0.0 10262361
18:00+2с223615 0.0 102532
21:00−2с114698 0.0 102610